Weather History for Carmi, IL

Change the Weather History Date:

Tuesday, May 7, 2013

  Actual Average (KEVV) Record (KEVV)
Temperature  
Mean Temperature 64 °F 63 °F  
Max Temperature 74 °F 74 °F 89 °F (1986)
Min Temperature 53 °F 52 °F 33 °F (1944)
Degree Days  
Heating Degree Days 2 4  
Month to date heating degree days 31  
Since 1 July heating degree days 4486  
Cooling Degree Days 0 2  
Month to date cooling degree days 11  
Year to date cooling degree days 38  
Growing Degree Days 14 (Base 50)    
Moisture  
Dew Point 57 °F    
Average Humidity 83    
Maximum Humidity 96    
Minimum Humidity 58    
Precipitation  
Precipitation 0.00 in 0.17 in 4.28 in (1961)
Month to date precipitation 1.20  
Year to date precipitation 16.08  
Snow  
Snow 0.00 in 0.00 in T in (1955)
Month to date snowfall 0.0  
Since 1 July snowfall 11.8  
Snow Depth -    
Sea Level Pressure  
Sea Level Pressure 29.97 in    
Wind  
Wind Speed 4 mph (NNW)    
Max Wind Speed 10 mph    
Max Gust Speed -    
Visibility 9 miles    
Events Thunderstorm    
T = Trace of Precipitation, MM = Missing Value Source: NWS Daily Summary

Daily Weather History Graph

Daily Weather History Graph

Search for Another Location

Airport:

Trip Planner

Search our weather history database for the weather conditions in past years. The results will help you decide how hot, cold, wet, or windy it might be!

Date:

Astronomy

May. 07, 2013 Rise Set
Actual Time 5:49 AM CDT 7:49 PM CDT
Civil Twilight 5:20 AM CDT 8:18 PM CDT
Nautical Twilight 4:45 AM CDT 8:53 PM CDT
Astronomical Twilight 4:07 AM CDT 9:31 PM CDT
Moon 4:21 AM CDT (5/7) 5:50 PM CDT (5/7)
Length of Visible Light 14h 57m
Length of Day
14h 00m
Waning Crescent, 5% of the Moon is Illuminated
May 7
Waning Crescent
May 9
New
May 17
First Quarter
May 24
Full
May 31
Last Quarter

Hourly Weather History & Observations

Time (CDT) Temp. Dew Point Humidity Pressure Visibility Wind Dir Wind Speed Gust Speed Precip Events Conditions
12:15 AM 55.9 °F 54.5 °F 95% 29.94 in 7.0 mi NNW 5.8 mph - N/A   Clear
12:35 AM 55.8 °F 54.3 °F 95% 29.94 in 7.0 mi NNW 5.8 mph - N/A   Clear
12:55 AM 56.1 °F 54.7 °F 95% 29.94 in 10.0 mi North 4.6 mph - N/A   Clear
1:15 AM 55.2 °F 53.8 °F 95% 29.94 in 7.0 mi NNW 3.5 mph - N/A   Clear
1:35 AM 55.9 °F 54.7 °F 96% 29.94 in 7.0 mi North 3.5 mph - N/A   Clear
1:55 AM 54.7 °F 53.2 °F 95% 29.94 in 7.0 mi NNW 4.6 mph - N/A   Clear
2:15 AM 54.7 °F 53.6 °F 96% 29.94 in 7.0 mi NNW 4.6 mph - N/A   Mostly Cloudy
2:35 AM 55.6 °F 54.3 °F 96% 29.94 in 10.0 mi NNW 3.5 mph - N/A   Overcast
2:55 AM 55.6 °F 54.5 °F 96% 29.94 in 10.0 mi North 5.8 mph - N/A   Mostly Cloudy
3:15 AM 54.9 °F 53.6 °F 96% 29.95 in 10.0 mi NNW 4.6 mph - N/A   Scattered Clouds
3:35 AM 54.3 °F 53.1 °F 95% 29.94 in 5.0 mi West 4.6 mph - N/A   Clear
3:55 AM 54.1 °F 52.9 °F 95% 29.94 in 4.0 mi West 4.6 mph - N/A   Clear
4:15 AM 53.6 °F 52.5 °F 96% 29.95 in 5.0 mi North 6.9 mph - N/A   Clear
4:35 AM 54.9 °F 53.8 °F 96% 29.94 in 10.0 mi North 3.5 mph - N/A   Scattered Clouds
4:55 AM 54.9 °F 53.8 °F 96% 29.94 in 7.0 mi NNW 4.6 mph - N/A   Clear
5:15 AM 55.6 °F 54.5 °F 96% 29.95 in 7.0 mi North 3.5 mph - N/A   Clear
5:35 AM 55.8 °F 54.5 °F 96% 29.96 in 7.0 mi North 4.6 mph - N/A   Mostly Cloudy
5:55 AM 55.8 °F 54.7 °F 96% 29.97 in 7.0 mi NW 5.8 mph - N/A   Overcast
6:15 AM 56.5 °F 55.4 °F 96% 29.97 in 7.0 mi NNW 5.8 mph - N/A   Overcast
6:35 AM 57.2 °F 56.1 °F 96% 29.98 in 10.0 mi NNW 6.9 mph - N/A   Overcast
6:55 AM 57.9 °F 56.5 °F 95% 29.99 in 10.0 mi NW 5.8 mph - N/A   Mostly Cloudy
7:15 AM 57.6 °F 56.3 °F 96% 30.00 in 7.0 mi NW 4.6 mph - N/A   Mostly Cloudy
7:35 AM 58.3 °F 56.8 °F 95% 30.00 in 10.0 mi NW 4.6 mph - N/A   Overcast
7:55 AM 59.0 °F 57.4 °F 94% 30.00 in 10.0 mi WNW 4.6 mph - N/A   Overcast
8:15 AM 60.1 °F 58.3 °F 94% 30.01 in 7.0 mi NNW 3.5 mph - N/A   Overcast
8:35 AM 60.3 °F 58.1 °F 93% 30.01 in 10.0 mi North 3.5 mph - N/A   Overcast
8:55 AM 61.0 °F 58.5 °F 91% 30.02 in 10.0 mi North 4.6 mph - N/A   Overcast
9:15 AM 61.0 °F 58.5 °F 91% 30.02 in 7.0 mi North 4.6 mph - N/A   Overcast
9:35 AM 61.5 °F 58.8 °F 91% 30.02 in 7.0 mi NNE 4.6 mph - N/A   Overcast
9:55 AM 62.1 °F 59.0 °F 90% 30.02 in 7.0 mi Calm Calm - N/A   Overcast
10:15 AM 64.6 °F 59.9 °F 85% 30.01 in 10.0 mi North 4.6 mph - N/A   Overcast
10:35 AM 65.1 °F 59.7 °F 83% 30.01 in 10.0 mi Calm Calm - N/A   Scattered Clouds
10:55 AM 66.9 °F 59.5 °F 77% 30.01 in 10.0 mi NE 4.6 mph - N/A   Clear
11:15 AM 67.6 °F 60.1 °F 77% 30.01 in 7.0 mi Calm Calm - N/A   Clear
11:35 AM 68.4 °F 59.4 °F 73% 30.01 in 10.0 mi WNW 3.5 mph - N/A   Clear
11:55 AM 69.6 °F 58.5 °F 68% 30.01 in 10.0 mi ENE 3.5 mph - N/A   Clear
12:15 PM 71.1 °F 58.6 °F 65% 30.00 in 10.0 mi Calm Calm - N/A   Clear
12:55 PM 71.4 °F 58.8 °F 64% 30.00 in 10.0 mi Calm Calm - N/A   Scattered Clouds
1:15 PM 72.0 °F 59.0 °F 64% 30.00 in 10.0 mi North 3.5 mph - N/A   Mostly Cloudy
1:35 PM 73.2 °F 58.8 °F 61% 29.99 in 10.0 mi Calm Calm - N/A   Scattered Clouds
1:55 PM 74.5 °F 58.6 °F 58% 29.98 in 10.0 mi NE 4.6 mph - N/A   Scattered Clouds
2:15 PM 71.6 °F 59.7 °F 66% 29.98 in 10.0 mi North 3.5 mph - N/A   Mostly Cloudy
2:35 PM 70.2 °F 59.0 °F 68% 29.98 in 10.0 mi NNW 6.9 mph - N/A   Overcast
2:55 PM 71.6 °F 59.7 °F 66% 29.97 in 10.0 mi NW 6.9 mph - N/A   Mostly Cloudy
3:15 PM 70.7 °F 59.4 °F 67% 29.97 in 10.0 mi NW 4.6 mph - N/A   Overcast
3:35 PM 71.2 °F 59.2 °F 66% 29.97 in 10.0 mi WNW 3.5 mph - N/A   Overcast
3:55 PM 71.8 °F 59.0 °F 64% 29.96 in 10.0 mi Calm Calm - N/A   Mostly Cloudy
4:15 PM 72.5 °F 58.8 °F 62% 29.95 in 10.0 mi West 4.6 mph - N/A   Overcast
4:35 PM 72.9 °F 57.7 °F 59% 29.95 in 10.0 mi WNW 8.1 mph - N/A   Mostly Cloudy
4:55 PM 72.0 °F 57.7 °F 61% 29.95 in 10.0 mi NW 10.4 mph - N/A Thunderstorm Overcast
5:15 PM 72.0 °F 59.0 °F 64% 29.95 in 10.0 mi NW 6.9 mph - N/A   Overcast
5:35 PM 71.4 °F 57.9 °F 62% 29.95 in 10.0 mi NW 5.8 mph - N/A   Mostly Cloudy
5:55 PM 70.7 °F 58.5 °F 65% 29.95 in 10.0 mi NW 6.9 mph - N/A   Scattered Clouds
6:15 PM 69.8 °F 57.9 °F 66% 29.95 in 10.0 mi WNW 5.8 mph - N/A   Clear
6:35 PM 69.1 °F 58.5 °F 69% 29.95 in 10.0 mi Calm Calm - N/A   Clear
6:55 PM 70.0 °F 58.3 °F 66% 29.95 in 10.0 mi Calm Calm - N/A   Clear
7:15 PM 69.1 °F 60.4 °F 74% 29.96 in 5.0 mi Calm Calm - N/A   Haze
7:35 PM 65.5 °F 60.4 °F 84% 29.96 in 10.0 mi South 4.6 mph - N/A   Clear
7:55 PM 64.2 °F 59.7 °F 85% 29.96 in 10.0 mi South 4.6 mph - N/A   Clear
8:15 PM 63.9 °F 59.0 °F 84% 29.97 in 10.0 mi South 5.8 mph - N/A   Clear
8:35 PM 62.1 °F 59.0 °F 90% 29.97 in 10.0 mi South 5.8 mph - N/A   Clear
8:55 PM 61.7 °F 58.5 °F 89% 29.98 in 10.0 mi SSW 3.5 mph - N/A   Clear
9:15 PM 61.2 °F 58.1 °F 90% 29.98 in 10.0 mi South 4.6 mph - N/A   Clear
9:35 PM 61.3 °F 58.1 °F 89% 29.98 in 10.0 mi Calm Calm - N/A   Scattered Clouds
9:55 PM 61.3 °F 58.5 °F 90% 29.99 in 10.0 mi Calm Calm - N/A   Mostly Cloudy
10:15 PM 61.7 °F 58.6 °F 90% 29.98 in 10.0 mi WSW 5.8 mph - N/A   Overcast
10:35 PM 61.7 °F 59.0 °F 91% 29.99 in 10.0 mi Calm Calm - N/A   Overcast
10:55 PM 61.7 °F 59.2 °F 91% 29.99 in 10.0 mi East 4.6 mph - N/A   Overcast
11:15 PM 61.5 °F 59.0 °F 91% 29.98 in 10.0 mi Calm Calm - N/A   Overcast
11:35 PM 61.7 °F 59.2 °F 91% 29.98 in 10.0 mi Calm Calm - N/A   Overcast
11:55 PM 61.0 °F 59.0 °F 93% 29.98 in 10.0 mi Calm Calm - N/A   Overcast